This is the latest recevied weather packets stored in our database for station/object W4NRG-1. If no packets are shown the sender has not sent any weather packets the latest 10 day(s).
| Time | Temp. | Humidity | Pressure | Rain* | Wind** | Luminosity | Snow |
|---|---|---|---|---|---|---|---|
| 1778072018 | 20° C | 68% | 1012.5 hPa | 0 mm | - | - | - |
| 1778071715 | 20° C | 68% | 1012.5 hPa | 0 mm | - | - | - |
| 1778071412 | 19.44° C | 69% | 1012.4 hPa | 0 mm | - | - | - |
| 1778071110 | 19.44° C | 69% | 1012.4 hPa | 0 mm | - | - | - |
| 1778070808 | 19.44° C | 69% | 1012.4 hPa | 0 mm | - | - | - |
| 1778070505 | 19.44° C | 69% | 1012.4 hPa | 0 mm | - | - | - |
| 1778070202 | 19.44° C | 69% | 1012.7 hPa | 0 mm | - | - | - |
| 1778069900 | 18.89° C | 69% | 1012.7 hPa | 0 mm | - | - | - |
| 1778069597 | 18.89° C | 70% | 1012.6 hPa | 0 mm | - | - | - |
| 1778069294 | 18.89° C | 70% | 1012.9 hPa | 0 mm | - | - | - |
| 1778068992 | 18.89° C | 70% | 1012.9 hPa | 0 mm | - | - | - |
| 1778068689 | 18.89° C | 70% | 1012.8 hPa | 0 mm | - | - | - |
| 1778068387 | 18.33° C | 70% | 1013.1 hPa | 0 mm | - | - | - |
| 1778068085 | 18.33° C | 70% | 1012.7 hPa | 0 mm | - | - | - |
| 1778067782 | 18.89° C | 70% | 1012.8 hPa | 0 mm | - | - | - |
| 1778067481 | 18.89° C | 69% | 1012.9 hPa | 0 mm | - | - | - |
| 1778067178 | 18.33° C | 70% | 1012.6 hPa | 0 mm | - | - | - |
| 1778066874 | 18.33° C | 69% | 1012.7 hPa | 0 mm | - | - | - |
| 1778066572 | 18.33° C | 70% | 1012.8 hPa | 0 mm | - | - | - |
| 1778066269 | 18.33° C | 70% | 1012.8 hPa | 0 mm | - | - | - |
| 1778065967 | 18.33° C | 70% | 1012.7 hPa | 0 mm | - | - | - |
| 1778065663 | 17.78° C | 71% | 1012.4 hPa | 0 mm | - | - | - |
| 1778065361 | 17.78° C | 72% | 1012.9 hPa | 0 mm | - | - | - |
| 1778065057 | 17.78° C | 72% | 1012.6 hPa | 0 mm | - | - | - |
| 1778064755 | 17.78° C | 72% | 1012.4 hPa | 0 mm | - | - | - |
* Rain latest hour (hover to see other rain measurements)
** Current wind speed in m/s (hover to see current wind gust speed)